| time (UTC) | temp C | wind direction | speed KPH | gust KPH | rain 1hr cm | rain 24hr cm | rain mn cm | humidity % | barometer mb |
| 20260509035046 | 13 | 293 | 4.8 | 16.1 | 0.79 | 0.89 | 0.89 | 95 | 1010.6 |
| 20260509034557 | 13 | 24 | 4.8 | 19.3 | 0.61 | 0.71 | 0.71 | 95 | 1010.6 |
| 20260509034045 | 13 | 360 | 4.8 | 20.9 | 0.56 | 0.64 | 0.64 | 95 | 1010.2 |
| 20260509033544 | 13 | 319 | 6.4 | 20.9 | 0.51 | 0.58 | 0.58 | 95 | 1010.4 |
| 20260509033045 | 13 | 20 | 6.4 | 14.5 | 0.46 | 0.53 | 0.53 | 94 | 1010.4 |
| 20260509032545 | 14 | 340 | 3.2 | 9.7 | 0.41 | 0.48 | 0.48 | 94 | 1010.5 |
| 20260509032044 | 14 | 351 | 3.2 | 9.7 | 0.41 | 0.48 | 0.48 | 94 | 1010.1 |
| 20260509031544 | 14 | 5 | 6.4 | 16.1 | 0.41 | 0.48 | 0.48 | 94 | 1010.2 |
| 20260509031044 | 14 | 13 | 8.0 | 19.3 | 0.28 | 0.36 | 0.36 | 94 | 1010.7 |
| 20260509030644 | 14 | 311 | 6.4 | 19.3 | 0.05 | 0.13 | 0.13 | 94 | 1010.4 |
| 20260509030041 | 14 | 5 | 8.0 | 22.5 | 0.03 | 0.10 | 0.10 | 93 | 1009.2 |
| 20260509025540 | 14 | 5 | 9.7 | 22.5 | 0.03 | 0.10 | 0.10 | 93 | 1008.9 |
| 20260509025041 | 15 | 77 | 6.4 | 22.5 | 0.03 | 0.10 | 0.10 | 93 | 1009.2 |
| 20260509024543 | 15 | 324 | 4.8 | 19.3 | 0.03 | 0.10 | 0.10 | 94 | 1009.3 |
| 20260509024040 | 15 | 355 | 9.7 | 24.1 | 0.00 | 0.08 | 0.08 | 94 | 1009.3 |
| 20260509023539 | 14 | 17 | 3.2 | 24.1 | 0.00 | 0.08 | 0.08 | 94 | 1009.2 |
| 20260509023046 | 14 | 340 | 9.7 | 22.5 | 0.00 | 0.08 | 0.08 | 94 | 1009.0 |
| 20260509022539 | 15 | 315 | 8.0 | 19.3 | 0.00 | 0.08 | 0.08 | 94 | 1009.0 |
| 20260509022039 | 15 | 211 | 0.0 | 3.2 | 0.00 | 0.08 | 0.08 | 94 | 1007.8 |
| 20260509021539 | 15 | 164 | 0.0 | 6.4 | 0.00 | 0.08 | 0.08 | 94 | 1007.6 |
| 20260509021042 | 15 | 182 | 3.2 | 6.4 | 0.00 | 0.08 | 0.08 | 94 | 1007.6 |
| 20260509020507 | 14 | 160 | 1.6 | 6.4 | 0.00 | 0.08 | 0.08 | 94 | 1007.7 |
| 20260509020007 | 15 | 161 | 1.6 | 6.4 | 0.00 | 0.08 | 0.08 | 94 | 1007.7 |
| 20260509015508 | 15 | 157 | 1.6 | 4.8 | 0.00 | 0.08 | 0.08 | 94 | 1007.8 |
| 20260509015007 | 14 | 157 | 0.0 | 4.8 | 0.00 | 0.08 | 0.08 | 94 | 1008.0 |
| 20260509014506 | 14 | 142 | 1.6 | 4.8 | 0.03 | 0.08 | 0.08 | 94 | 1008.1 |
| 20260509014006 | 15 | 186 | 0.0 | 4.8 | 0.03 | 0.08 | 0.08 | 94 | 1008.3 |
| 20260509013507 | 15 | 117 | 1.6 | 4.8 | 0.03 | 0.08 | 0.08 | 94 | 1008.4 |
| 20260509013007 | 15 | 150 | 1.6 | 4.8 | 0.03 | 0.08 | 0.08 | 94 | 1008.3 |
| 20260509012506 | 15 | 166 | 0.0 | 4.8 | 0.05 | 0.08 | 0.08 | 94 | 1008.4 |
| 20260509012007 | 15 | 155 | 1.6 | 4.8 | 0.05 | 0.08 | 0.08 | 93 | 1008.4 |
| 20260509011506 | 15 | 145 | 0.0 | 3.2 | 0.08 | 0.08 | 0.08 | 93 | 1008.3 |
| 20260509011108 | 15 | 124 | 0.0 | 6.4 | 0.08 | 0.08 | 0.08 | 93 | 1008.4 |
| 20260509010651 | 15 | 136 | 0.0 | 6.4 | 0.08 | 0.08 | 0.08 | 93 | 1007.2 |
| 20260509010056 | 15 | 125 | 1.6 | 3.2 | 0.08 | 0.08 | 0.08 | 92 | 1007.6 |
| 20260509005556 | 15 | 107 | 0.0 | 1.6 | 0.08 | 0.08 | 0.08 | 92 | 1007.7 |
| 20260509005055 | 15 | 70 | 0.0 | 4.8 | 0.08 | 0.08 | 0.08 | 91 | 1007.7 |
| 20260509004554 | 15 | 69 | 1.6 | 4.8 | 0.05 | 0.05 | 0.05 | 91 | 1007.7 |
| 20260509004054 | 15 | 114 | 1.6 | 6.4 | 0.05 | 0.05 | 0.05 | 90 | 1008.0 |
| 20260509003555 | 15 | 294 | 1.6 | 6.4 | 0.05 | 0.05 | 0.05 | 88 | 1007.9 |
| 20260509003118 | 16 | 347 | 1.6 | 4.8 | 0.05 | 0.05 | 0.05 | 86 | 1007.8 |
| 20260509002554 | 16 | 292 | 1.6 | 14.5 | 0.03 | 0.03 | 0.03 | 82 | 1007.8 |
| 20260509002055 | 17 | 240 | 3.2 | 19.3 | 0.03 | 0.03 | 0.03 | 78 | 1007.8 |
| 20260509001602 | 18 | 301 | 8.0 | 27.4 | 0.00 | 0.00 | 0.00 | 73 | 1007.9 |
| 20260509001054 | 19 | 321 | 8.0 | 29.0 | 0.00 | 0.00 | 0.00 | 68 | 1007.8 |
| 20260509000654 | 20 | 290 | 12.9 | 29.0 | 0.00 | 0.00 | 0.00 | 67 | 1007.9 |
| 20260509000108 | 20 | 165 | 0.0 | 3.2 | 0.00 | 0.00 | 0.00 | 67 | 1007.4 |
| 20260508235552 | 20 | 189 | 0.0 | 4.8 | 0.00 | 0.00 | 0.00 | 68 | 1007.4 |
| 20260508235052 | 21 | 201 | 0.0 | 8.0 | 0.00 | 0.00 | 0.00 | 67 | 1007.3 |
| 20260508234551 | 21 | 194 | 1.6 | 8.0 | 0.00 | 0.00 | 0.00 | 64 | 1007.3 |
| 20260508234053 | 21 | 209 | 0.0 | 1.6 | 0.00 | 0.00 | 0.00 | 65 | 1007.4 |
| 20260508233551 | 21 | 210 | 0.0 | 3.2 | 0.00 | 0.00 | 0.00 | 64 | 1007.5 |
| 20260508233051 | 21 | 196 | 1.6 | 3.2 | 0.00 | 0.00 | 0.00 | 63 | 1007.6 |
| 20260508232550 | 21 | 240 | 0.0 | 4.8 | 0.00 | 0.00 | 0.00 | 67 | 1007.6 |
| 20260508232050 | 22 | 240 | 0.0 | 4.8 | 0.00 | 0.00 | 0.00 | 60 | 1007.6 |
| 20260508231552 | 22 | 186 | 1.6 | 8.0 | 0.00 | 0.00 | 0.00 | 58 | 1007.6 |
| 20260508231050 | 22 | 200 | 3.2 | 9.7 | 0.00 | 0.00 | 0.00 | 57 | 1007.6 |
| 20260508230652 | 22 | 197 | 3.2 | 14.5 | 0.00 | 0.00 | 0.00 | 55 | 1007.7 |
| 20260508225600 | 22 | 178 | 3.2 | 11.3 | 0.00 | 0.00 | 0.00 | 56 | 1007.6 |
| 20260508225101 | 22 | 158 | 4.8 | 11.3 | 0.00 | 0.00 | 0.00 | 57 | 1007.6 |
| 20260508224607 | 22 | 191 | 3.2 | 12.9 | 0.00 | 0.00 | 0.00 | 56 | 1007.6 |
| 20260508224058 | 22 | 196 | 4.8 | 12.9 | 0.00 | 0.00 | 0.00 | 55 | 1007.6 |
| 20260508223558 | 22 | 182 | 1.6 | 8.0 | 0.00 | 0.00 | 0.00 | 55 | 1007.7 |
| 20260508223058 | 22 | 203 | 1.6 | 16.1 | 0.00 | 0.00 | 0.00 | 58 | 1007.6 |
| 20260508222557 | 22 | 223 | 4.8 | 17.7 | 0.00 | 0.00 | 0.00 | 52 | 1007.7 |
| 20260508222057 | 23 | 31 | 6.4 | 17.7 | 0.00 | 0.00 | 0.00 | 54 | 1007.7 |
| 20260508221559 | 23 | 324 | 0.0 | 11.3 | 0.00 | 0.00 | 0.00 | 52 | 1007.8 |
| 20260508221057 | 23 | 205 | 3.2 | 11.3 | 0.00 | 0.00 | 0.00 | 54 | 1007.8 |
| 20260508220657 | 23 | 195 | 1.6 | 16.1 | 0.00 | 0.00 | 0.00 | 53 | 1007.8 |
| 20260508220058 | 23 | 188 | 6.4 | 16.1 | 0.00 | 0.00 | 0.00 | 51 | 1007.8 |
| 20260508215558 | 23 | 317 | 6.4 | 16.1 | 0.00 | 0.00 | 0.00 | 51 | 1007.7 |
| 20260508215100 | 23 | 347 | 3.2 | 12.9 | 0.00 | 0.00 | 0.00 | 54 | 1007.7 |
| 20260508214557 | 23 | 220 | 3.2 | 9.7 | 0.00 | 0.00 | 0.00 | 52 | 1007.8 |
| 20260508214056 | 23 | 159 | 3.2 | 14.5 | 0.00 | 0.00 | 0.00 | 52 | 1007.8 |
| 20260508213557 | 23 | 228 | 6.4 | 14.5 | 0.00 | 0.00 | 0.00 | 50 | 1007.9 |
| 20260508213102 | 23 | 270 | 3.2 | 12.9 | 0.00 | 0.00 | 0.00 | 51 | 1008.0 |
| 20260508212555 | 23 | 230 | 3.2 | 12.9 | 0.00 | 0.00 | 0.00 | 52 | 1008.0 |
| 20260508212054 | 23 | 173 | 1.6 | 11.3 | 0.00 | 0.00 | 0.00 | 52 | 1008.1 |
| 20260508211553 | 23 | 181 | 3.2 | 14.5 | 0.00 | 0.00 | 0.00 | 56 | 1008.1 |
| 20260508211057 | 23 | 117 | 3.2 | 14.5 | 0.00 | 0.00 | 0.00 | 55 | 1008.2 |
| 20260508210652 | 23 | 214 | 4.8 | 14.5 | 0.00 | 0.00 | 0.00 | 53 | 1008.3 |
| 20260508210058 | 22 | 173 | 3.2 | 14.5 | 0.00 | 0.00 | 0.00 | 55 | 1008.4 |
| 20260508205557 | 22 | 177 | 4.8 | 14.5 | 0.00 | 0.00 | 0.00 | 52 | 1008.6 |
| 20260508205057 | 23 | 36 | 3.2 | 12.9 | 0.00 | 0.00 | 0.00 | 53 | 1008.6 |
| 20260508204556 | 23 | 33 | 3.2 | 12.9 | 0.00 | 0.00 | 0.00 | 51 | 1008.7 |
| 20260508204055 | 22 | 229 | 1.6 | 9.7 | 0.00 | 0.00 | 0.00 | 55 | 1008.8 |
| 20260508203557 | 22 | 205 | 1.6 | 11.3 | 0.00 | 0.00 | 0.00 | 53 | 1008.9 |
| 20260508203055 | 22 | 182 | 3.2 | 11.3 | 0.00 | 0.00 | 0.00 | 53 | 1008.9 |
| 20260508202553 | 22 | 187 | 3.2 | 11.3 | 0.00 | 0.00 | 0.00 | 52 | 1009.1 |
| 20260508202052 | 23 | 150 | 4.8 | 12.9 | 0.00 | 0.00 | 0.00 | 55 | 1009.4 |
| 20260508201602 | 22 | 192 | 4.8 | 12.9 | 0.00 | 0.00 | 0.00 | 52 | 1009.4 |
| 20260508201051 | 22 | 327 | 6.4 | 14.5 | 0.00 | 0.00 | 0.00 | 54 | 1009.5 |
| 20260508200650 | 22 | 307 | 3.2 | 14.5 | 0.00 | 0.00 | 0.00 | 56 | 1009.6 |
| 20260508200106 | 21 | 201 | 1.6 | 11.3 | 0.00 | 0.00 | 0.00 | 52 | 1009.6 |
| 20260508195554 | 21 | 197 | 3.2 | 11.3 | 0.00 | 0.00 | 0.00 | 52 | 1009.7 |
| 20260508195054 | 21 | 273 | 3.2 | 12.9 | 0.00 | 0.00 | 0.00 | 51 | 1009.8 |
| 20260508194557 | 21 | 314 | 4.8 | 14.5 | 0.00 | 0.00 | 0.00 | 54 | 1009.9 |
| 20260508194055 | 21 | 198 | 4.8 | 16.1 | 0.00 | 0.00 | 0.00 | 51 | 1009.8 |
| 20260508193552 | 21 | 199 | 3.2 | 12.9 | 0.00 | 0.00 | 0.00 | 54 | 1010.0 |
| 20260508193100 | 22 | 171 | 3.2 | 14.5 | 0.00 | 0.00 | 0.00 | 55 | 1010.1 |
| 20260508192551 | 22 | 199 | 4.8 | 16.1 | 0.00 | 0.00 | 0.00 | 54 | 1010.1 |
| 20260508192050 | 22 | 193 | 4.8 | 16.1 | 0.00 | 0.00 | 0.00 | 49 | 1010.1 |
| 20260508191550 | 22 | 240 | 4.8 | 16.1 | 0.00 | 0.00 | 0.00 | 50 | 1010.2 |
| 20260508191048 | 22 | 184 | 4.8 | 16.1 | 0.00 | 0.00 | 0.00 | 52 | 1010.2 |
| 20260508190649 | 22 | 155 | 4.8 | 16.1 | 0.00 | 0.00 | 0.00 | 50 | 1010.2 |
| 20260508190048 | 22 | 163 | 8.0 | 16.1 | 0.00 | 0.00 | 0.00 | 49 | 1010.3 |
| 20260508185549 | 22 | 196 | 6.4 | 22.5 | 0.00 | 0.00 | 0.00 | 50 | 1010.4 |
| 20260508185045 | 22 | 188 | 9.7 | 22.5 | 0.00 | 0.00 | 0.00 | 50 | 1010.5 |
| 20260508184554 | 22 | 175 | 9.7 | 25.7 | 0.00 | 0.00 | 0.00 | 47 | 1010.4 |
| 20260508184043 | 22 | 31 | 8.0 | 25.7 | 0.00 | 0.00 | 0.00 | 47 | 1010.6 |
| 20260508183543 | 23 | 204 | 6.4 | 19.3 | 0.00 | 0.00 | 0.00 | 50 | 1010.6 |
| 20260508183049 | 22 | 125 | 6.4 | 33.8 | 0.00 | 0.00 | 0.00 | 50 | 1010.6 |
| 20260508182541 | 22 | 203 | 6.4 | 33.8 | 0.00 | 0.00 | 0.00 | 50 | 1010.7 |
| 20260508182041 | 23 | 182 | 6.4 | 22.5 | 0.00 | 0.00 | 0.00 | 48 | 1010.6 |
| 20260508181543 | 23 | 204 | 6.4 | 20.9 | 0.00 | 0.00 | 0.00 | 49 | 1010.7 |
| 20260508181040 | 23 | 202 | 4.8 | 16.1 | 0.00 | 0.00 | 0.00 | 51 | 1010.7 |
| 20260508180507 | 23 | 205 | 4.8 | 16.1 | 0.00 | 0.00 | 0.00 | 52 | 1010.8 |
| 20260508180005 | 23 | 213 | 3.2 | 16.1 | 0.00 | 0.00 | 0.00 | 49 | 1010.8 |
| 20260508175505 | 23 | 198 | 6.4 | 17.7 | 0.00 | 0.00 | 0.00 | 49 | 1011.0 |
| 20260508175003 | 23 | 97 | 1.6 | 14.5 | 0.00 | 0.00 | 0.00 | 55 | 1011.0 |
| 20260508174503 | 22 | 214 | 6.4 | 14.5 | 0.00 | 0.00 | 0.00 | 47 | 1011.1 |
| 20260508174002 | 22 | 178 | 4.8 | 14.5 | 0.00 | 0.00 | 0.00 | 50 | 1011.2 |
| 20260508173501 | 22 | 5 | 4.8 | 16.1 | 0.00 | 0.00 | 0.00 | 49 | 1011.1 |
| 20260508173100 | 22 | 210 | 8.0 | 20.9 | 0.00 | 0.00 | 0.00 | 49 | 1011.3 |
| 20260508172602 | 22 | 184 | 8.0 | 20.9 | 0.00 | 0.00 | 0.00 | 49 | 1011.5 |
| 20260508172100 | 22 | 196 | 8.0 | 20.9 | 0.00 | 0.00 | 0.00 | 49 | 1011.5 |
| 20260508171600 | 22 | 298 | 6.4 | 20.9 | 0.00 | 0.00 | 0.00 | 49 | 1011.5 |
| 20260508171100 | 22 | 259 | 6.4 | 19.3 | 0.00 | 0.00 | 0.00 | 52 | 1011.5 |
| 20260508170502 | 22 | 246 | 4.8 | 16.1 | 0.00 | 0.00 | 0.00 | 52 | 1011.8 |
| 20260508170002 | 22 | 276 | 8.0 | 16.1 | 0.00 | 0.00 | 0.00 | 52 | 1012.0 |
| 20260508165500 | 22 | 228 | 4.8 | 16.1 | 0.00 | 0.00 | 0.00 | 58 | 1012.0 |
| 20260508165059 | 21 | 295 | 3.2 | 17.7 | 0.00 | 0.00 | 0.00 | 52 | 1012.1 |
| 20260508164605 | 21 | 269 | 3.2 | 17.7 | 0.00 | 0.00 | 0.00 | 50 | 1012.3 |
| 20260508164059 | 21 | 279 | 4.8 | 11.3 | 0.00 | 0.00 | 0.00 | 53 | 1012.3 |
| 20260508163557 | 21 | 337 | 3.2 | 14.5 | 0.00 | 0.00 | 0.00 | 54 | 1012.4 |
| 20260508163117 | 21 | 279 | 4.8 | 14.5 | 0.00 | 0.00 | 0.00 | 55 | 1012.4 |
| 20260508162557 | 21 | 205 | 8.0 | 14.5 | 0.00 | 0.00 | 0.00 | 52 | 1012.5 |
| 20260508162056 | 21 | 188 | 1.6 | 14.5 | 0.00 | 0.00 | 0.00 | 58 | 1012.6 |
| 20260508161556 | 21 | 150 | 4.8 | 17.7 | 0.00 | 0.00 | 0.00 | 54 | 1012.7 |
| 20260508161053 | 20 | 230 | 4.8 | 19.3 | 0.00 | 0.00 | 0.00 | 68 | 1012.7 |
| 20260508160501 | 20 | 304 | 1.6 | 6.4 | 0.00 | 0.00 | 0.00 | 65 | 1013.1 |
| 20260508160100 | 19 | 340 | 1.6 | 6.4 | 0.00 | 0.00 | 0.00 | 68 | 1013.1 |
| 20260508155559 | 18 | 271 | 0.0 | 8.0 | 0.00 | 0.00 | 0.00 | 71 | 1013.0 |
| 20260508155101 | 18 | 243 | 1.6 | 8.0 | 0.00 | 0.00 | 0.00 | 68 | 1013.0 |
| 20260508154559 | 18 | 279 | 0.0 | 4.8 | 0.00 | 0.00 | 0.00 | 68 | 1013.3 |
| 20260508154054 | 18 | 315 | 0.0 | 14.5 | 0.00 | 0.00 | 0.00 | 70 | 1013.2 |
| 20260508153554 | 17 | 204 | 1.6 | 14.5 | 0.00 | 0.00 | 0.00 | 70 | 1013.3 |
| 20260508153056 | 17 | 278 | 1.6 | 4.8 | 0.00 | 0.00 | 0.00 | 69 | 1013.4 |
| 20260508152552 | 17 | 273 | 1.6 | 6.4 | 0.00 | 0.00 | 0.00 | 67 | 1013.5 |
| 20260508152052 | 17 | 193 | 1.6 | 6.4 | 0.00 | 0.00 | 0.00 | 70 | 1013.4 |
| 20260508151552 | 17 | 194 | 0.0 | 6.4 | 0.00 | 0.00 | 0.00 | 72 | 1013.4 |
| 20260508151050 | 17 | 265 | 1.6 | 6.4 | 0.00 | 0.00 | 0.00 | 71 | 1013.5 |
| 20260508150648 | 16 | 65 | 0.0 | 11.3 | 0.00 | 0.00 | 0.00 | 71 | 1013.6 |
| 20260508150052 | 16 | 194 | 1.6 | 11.3 | 0.00 | 0.00 | 0.00 | 72 | 1013.5 |
| 20260508145550 | 16 | 146 | 3.2 | 9.7 | 0.00 | 0.00 | 0.00 | 73 | 1013.4 |
| 20260508145052 | 16 | 244 | 4.8 | 11.3 | 0.00 | 0.00 | 0.00 | 70 | 1013.3 |
| 20260508144549 | 15 | 188 | 3.2 | 8.0 | 0.00 | 0.00 | 0.00 | 71 | 1013.5 |
| 20260508144047 | 15 | 199 | 0.0 | 11.3 | 0.00 | 0.00 | 0.00 | 77 | 1013.6 |
| 20260508143546 | 15 | 202 | 1.6 | 11.3 | 0.00 | 0.00 | 0.00 | 74 | 1013.5 |
| 20260508143048 | 14 | 151 | 1.6 | 6.4 | 0.00 | 0.00 | 0.00 | 73 | 1013.7 |
| 20260508142544 | 14 | 190 | 3.2 | 8.0 | 0.00 | 0.00 | 0.00 | 74 | 1013.8 |
| 20260508142048 | 14 | 174 | 3.2 | 9.7 | 0.00 | 0.00 | 0.00 | 75 | 1013.8 |
| 20260508141545 | 14 | 161 | 3.2 | 9.7 | 0.00 | 0.00 | 0.00 | 72 | 1013.9 |
| 20260508141044 | 14 | 134 | 1.6 | 9.7 | 0.00 | 0.00 | 0.00 | 75 | 1013.9 |
| 20260508140646 | 14 | 179 | 4.8 | 9.7 | 0.00 | 0.00 | 0.00 | 73 | 1014.0 |
| 20260508140053 | 14 | 162 | 3.2 | 12.9 | 0.00 | 0.00 | 0.00 | 72 | 1014.0 |
| 20260508135553 | 14 | 196 | 4.8 | 12.9 | 0.00 | 0.00 | 0.00 | 73 | 1014.0 |
| 20260508135052 | 14 | 137 | 3.2 | 12.9 | 0.00 | 0.00 | 0.00 | 73 | 1014.0 |
| 20260508134550 | 13 | 174 | 1.6 | 9.7 | 0.00 | 0.00 | 0.00 | 77 | 1014.0 |
| 20260508134048 | 13 | 169 | 3.2 | 11.3 | 0.00 | 0.00 | 0.00 | 76 | 1014.0 |
| 20260508133550 | 13 | 136 | 4.8 | 11.3 | 0.00 | 0.00 | 0.00 | 75 | 1014.1 |
| 20260508133048 | 13 | 121 | 1.6 | 9.7 | 0.00 | 0.00 | 0.00 | 80 | 1014.2 |
| 20260508132545 | 13 | 194 | 1.6 | 9.7 | 0.00 | 0.00 | 0.00 | 81 | 1014.1 |
| 20260508132042 | 12 | 146 | 1.6 | 9.7 | 0.00 | 0.00 | 0.00 | 84 | 1014.1 |
| 20260508131552 | 12 | 100 | 1.6 | 12.9 | 0.00 | 0.00 | 0.00 | 83 | 1014.2 |
| 20260508131042 | 12 | 98 | 3.2 | 12.9 | 0.00 | 0.00 | 0.00 | 83 | 1014.2 |
| 20260508130511 | 12 | 159 | 6.4 | 14.5 | 0.00 | 0.00 | 0.00 | 81 | 1014.1 |
| 20260508130012 | 12 | 166 | 4.8 | 12.9 | 0.00 | 0.00 | 0.00 | 84 | 1014.0 |
| 20260508125509 | 11 | 184 | 3.2 | 9.7 | 0.00 | 0.00 | 0.00 | 86 | 1013.9 |
| 20260508125008 | 11 | 163 | 3.2 | 9.7 | 0.00 | 0.00 | 0.00 | 88 | 1013.9 |
| 20260508124506 | 10 | 163 | 1.6 | 4.8 | 0.00 | 0.00 | 0.00 | 91 | 1014.0 |
| 20260508124005 | 10 | 216 | 0.0 | 11.3 | 0.00 | 0.00 | 0.00 | 90 | 1014.1 |
| 20260508123505 | 10 | 204 | 1.6 | 11.3 | 0.00 | 0.00 | 0.00 | 90 | 1014.1 |
| 20260508123006 | 10 | 175 | 1.6 | 9.7 | 0.00 | 0.00 | 0.00 | 90 | 1014.0 |
| 20260508122501 | 9 | 90 | 1.6 | 9.7 | 0.00 | 0.00 | 0.00 | 89 | 1014.0 |
| 20260508122002 | 9 | 134 | 1.6 | 4.8 | 0.00 | 0.00 | 0.00 | 89 | 1013.9 |
| 20260508121600 | 8 | 144 | 1.6 | 6.4 | 0.00 | 0.00 | 0.00 | 89 | 1013.9 |
| 20260508121058 | 8 | 126 | 3.2 | 6.4 | 0.00 | 0.00 | 0.00 | 89 | 1013.9 |
| 20260508120508 | 8 | 134 | 1.6 | 6.4 | 0.00 | 0.00 | 0.00 | 89 | 1013.8 |
| 20260508120004 | 8 | 121 | 1.6 | 4.8 | 0.00 | 0.00 | 0.00 | 90 | 1013.7 |
| 20260508115503 | 7 | 155 | 1.6 | 4.8 | 0.00 | 0.00 | 0.00 | 91 | 1013.7 |
| 20260508115100 | 7 | 126 | 1.6 | 4.8 | 0.00 | 0.00 | 0.00 | 91 | 1013.6 |
| 20260508114559 | 7 | 121 | 3.2 | 6.4 | 0.00 | 0.00 | 0.00 | 91 | 1013.7 |
| 20260508114058 | 7 | 130 | 1.6 | 6.4 | 0.00 | 0.00 | 0.00 | 90 | 1013.7 |
| 20260508113557 | 7 | 134 | 1.6 | 8.0 | 0.00 | 0.00 | 0.00 | 90 | 1013.7 |
| 20260508113059 | 7 | 159 | 1.6 | 8.0 | 0.00 | 0.00 | 0.00 | 90 | 1013.7 |
| 20260508112555 | 7 | 159 | 1.6 | 8.0 | 0.00 | 0.00 | 0.00 | 89 | 1013.6 |
| 20260508112055 | 7 | 130 | 1.6 | 9.7 | 0.00 | 0.00 | 0.00 | 89 | 1013.4 |
| 20260508111556 | 7 | 129 | 4.8 | 9.7 | 0.00 | 0.00 | 0.00 | 90 | 1013.4 |
| 20260508111054 | 7 | 136 | 1.6 | 6.4 | 0.00 | 0.00 | 0.00 | 90 | 1013.4 |
| 20260508110655 | 7 | 161 | 3.2 | 8.0 | 0.00 | 0.00 | 0.00 | 90 | 1013.4 |
| 20260508110123 | 7 | 161 | 3.2 | 8.0 | 0.00 | 0.00 | 0.00 | 90 | 1013.6 |
| 20260508105556 | 7 | 144 | 3.2 | 8.0 | 0.00 | 0.00 | 0.00 | 90 | 1013.5 |
| 20260508105056 | 7 | 127 | 1.6 | 4.8 | 0.00 | 0.00 | 0.00 | 90 | 1013.6 |
| 20260508104602 | 7 | 144 | 1.6 | 8.0 | 0.00 | 0.00 | 0.00 | 90 | 1013.7 |
| 20260508104055 | 7 | 126 | 1.6 | 8.0 | 0.00 | 0.00 | 0.00 | 90 | 1013.7 |
| 20260508103554 | 7 | 124 | 1.6 | 6.4 | 0.00 | 0.00 | 0.00 | 90 | 1013.6 |
| 20260508103057 | 7 | 133 | 1.6 | 4.8 | 0.00 | 0.00 | 0.00 | 91 | 1013.6 |
| 20260508102552 | 6 | 136 | 0.0 | 4.8 | 0.00 | 0.00 | 0.00 | 92 | 1013.6 |
| 20260508102054 | 6 | 117 | 1.6 | 4.8 | 0.00 | 0.00 | 0.00 | 92 | 1013.7 |
| 20260508101555 | 6 | 138 | 1.6 | 4.8 | 0.00 | 0.00 | 0.00 | 92 | 1013.7 |
| 20260508101051 | 6 | 150 | 1.6 | 4.8 | 0.00 | 0.00 | 0.00 | 92 | 1013.8 |
| 20260508100651 | 6 | 155 | 0.0 | 4.8 | 0.00 | 0.00 | 0.00 | 92 | 1013.9 |
| 20260508100053 | 6 | 165 | 1.6 | 4.8 | 0.00 | 0.00 | 0.00 | 93 | 1013.9 |
| 20260508095557 | 6 | 151 | 1.6 | 4.8 | 0.00 | 0.00 | 0.00 | 93 | 1014.0 |
| 20260508095054 | 6 | 142 | 1.6 | 4.8 | 0.00 | 0.00 | 0.00 | 93 | 1013.9 |
| 20260508094555 | 6 | 138 | 1.6 | 4.8 | 0.00 | 0.00 | 0.00 | 93 | 1013.9 |
| 20260508094051 | 6 | 155 | 0.0 | 4.8 | 0.00 | 0.00 | 0.00 | 93 | 1013.8 |
| 20260508093551 | 6 | 136 | 0.0 | 4.8 | 0.00 | 0.00 | 0.00 | 93 | 1013.9 |
| 20260508093058 | 6 | 136 | 0.0 | 1.6 | 0.00 | 0.00 | 0.00 | 93 | 1013.9 |
| 20260508092549 | 6 | 136 | 0.0 | 1.6 | 0.00 | 0.00 | 0.00 | 93 | 1014.0 |
| 20260508092048 | 6 | 142 | 0.0 | 1.6 | 0.00 | 0.00 | 0.00 | 93 | 1014.0 |
| 20260508091549 | 6 | 142 | 0.0 | 0.0 | 0.00 | 0.00 | 0.00 | 93 | 1013.9 |
| 20260508091048 | 6 | 142 | 0.0 | 0.0 | 0.00 | 0.00 | 0.00 | 93 | 1014.0 |
| 20260508090650 | 6 | 142 | 0.0 | 3.2 | 0.00 | 0.00 | 0.00 | 93 | 1014.0 |
| 20260508090104 | 6 | 142 | 0.0 | 3.2 | 0.00 | 0.00 | 0.00 | 93 | 1013.9 |
| 20260508085546 | 6 | 145 | 0.0 | 1.6 | 0.00 | 0.00 | 0.00 | 93 | 1014.1 |
| 20260508085045 | 6 | 145 | 0.0 | 1.6 | 0.00 | 0.00 | 0.00 | 93 | 1014.1 |
| 20260508084545 | 6 | 144 | 0.0 | 1.6 | 0.00 | 0.00 | 0.00 | 93 | 1014.1 |
| 20260508084048 | 6 | 132 | 0.0 | 1.6 | 0.00 | 0.00 | 0.00 | 93 | 1014.2 |
| 20260508083548 | 6 | 132 | 0.0 | 1.6 | 0.00 | 0.00 | 0.00 | 93 | 1014.2 |
| 20260508083044 | 6 | 132 | 0.0 | 1.6 | 0.00 | 0.00 | 0.00 | 93 | 1014.2 |
| 20260508082544 | 6 | 153 | 0.0 | 4.8 | 0.00 | 0.00 | 0.00 | 93 | 1014.2 |
| 20260508082044 | 6 | 153 | 0.0 | 4.8 | 0.00 | 0.00 | 0.00 | 93 | 1014.2 |
| 20260508081545 | 6 | 123 | 0.0 | 1.6 | 0.00 | 0.00 | 0.00 | 93 | 1014.2 |
| 20260508081042 | 6 | 157 | 0.0 | 1.6 | 0.00 | 0.00 | 0.00 | 93 | 1014.1 |
| 20260508080643 | 6 | 157 | 0.0 | 1.6 | 0.00 | 0.00 | 0.00 | 93 | 1014.2 |
| 20260508080104 | 6 | 157 | 0.0 | 1.6 | 0.00 | 0.00 | 0.00 | 93 | 1014.1 |
| 20260508075559 | 6 | 157 | 0.0 | 1.6 | 0.00 | 0.00 | 0.00 | 93 | 1014.2 |
| 20260508075057 | 6 | 157 | 0.0 | 1.6 | 0.00 | 0.00 | 0.00 | 93 | 1014.4 |
| 20260508074557 | 6 | 157 | 0.0 | 1.6 | 0.00 | 0.00 | 0.00 | 92 | 1014.2 |
| 20260508074059 | 6 | 157 | 0.0 | 1.6 | 0.00 | 0.00 | 0.00 | 92 | 1014.4 |
| 20260508073557 | 6 | 157 | 0.0 | 1.6 | 0.00 | 0.00 | 0.00 | 92 | 1014.4 |
| 20260508073057 | 6 | 157 | 0.0 | 1.6 | 0.00 | 0.00 | 0.00 | 92 | 1014.4 |
| 20260508072556 | 6 | 157 | 0.0 | 1.6 | 0.00 | 0.00 | 0.00 | 92 | 1014.4 |
| 20260508072057 | 6 | 157 | 0.0 | 1.6 | 0.00 | 0.00 | 0.00 | 92 | 1014.4 |
| 20260508071554 | 6 | 157 | 0.0 | 0.0 | 0.00 | 0.00 | 0.00 | 92 | 1014.5 |
| 20260508071055 | 6 | 157 | 0.0 | 0.0 | 0.00 | 0.00 | 0.00 | 92 | 1014.6 |
| 20260508070654 | 6 | 157 | 0.0 | 0.0 | 0.00 | 0.00 | 0.00 | 92 | 1014.5 |
| 20260508070056 | 6 | 157 | 0.0 | 0.0 | 0.00 | 0.00 | 0.00 | 92 | 1014.5 |
| 20260508065558 | 6 | 157 | 0.0 | 1.6 | 0.00 | 0.00 | 0.00 | 92 | 1014.5 |
| 20260508065055 | 6 | 157 | 0.0 | 1.6 | 0.00 | 0.00 | 0.00 | 92 | 1014.6 |
| 20260508064555 | 6 | 147 | 0.0 | 1.6 | 0.00 | 0.00 | 0.00 | 92 | 1014.6 |
| 20260508064055 | 6 | 147 | 0.0 | 1.6 | 0.00 | 0.00 | 0.00 | 92 | 1014.6 |
| 20260508063553 | 6 | 147 | 0.0 | 1.6 | 0.00 | 0.00 | 0.00 | 92 | 1014.7 |
| 20260508063055 | 6 | 147 | 0.0 | 3.2 | 0.00 | 0.00 | 0.00 | 92 | 1014.7 |
| 20260508062551 | 6 | 147 | 0.0 | 3.2 | 0.00 | 0.00 | 0.00 | 92 | 1014.8 |
| 20260508062052 | 6 | 147 | 0.0 | 3.2 | 0.00 | 0.00 | 0.00 | 92 | 1014.9 |
| 20260508061551 | 6 | 189 | 0.0 | 1.6 | 0.00 | 0.00 | 0.00 | 92 | 1014.8 |
| 20260508061050 | 6 | 189 | 0.0 | 3.2 | 0.00 | 0.00 | 0.00 | 92 | 1015.0 |
| 20260508060651 | 6 | 189 | 1.6 | 3.2 | 0.00 | 0.00 | 0.00 | 92 | 1015.0 |
| 20260508060054 | 6 | 189 | 1.6 | 3.2 | 0.00 | 0.00 | 0.00 | 92 | 1015.1 |
| 20260508055551 | 6 | 189 | 0.0 | 3.2 | 0.00 | 0.00 | 0.00 | 92 | 1015.2 |
| 20260508055051 | 6 | 189 | 0.0 | 3.2 | 0.00 | 0.00 | 0.00 | 92 | 1015.2 |
| 20260508054613 | 6 | 189 | 0.0 | 1.6 | 0.00 | 0.00 | 0.00 | 92 | 1015.1 |
| 20260508054049 | 6 | 189 | 0.0 | 1.6 | 0.00 | 0.00 | 0.00 | 92 | 1015.3 |
| 20260508053552 | 6 | 189 | 0.0 | 1.6 | 0.00 | 0.00 | 0.00 | 92 | 1015.3 |
| 20260508053049 | 6 | 189 | 0.0 | 3.2 | 0.00 | 0.00 | 0.00 | 92 | 1015.3 |
| 20260508052550 | 6 | 189 | 0.0 | 3.2 | 0.00 | 0.00 | 0.00 | 92 | 1015.3 |
| 20260508052047 | 6 | 189 | 0.0 | 1.6 | 0.00 | 0.00 | 0.00 | 92 | 1015.4 |
| 20260508051547 | 6 | 189 | 0.0 | 0.0 | 0.00 | 0.00 | 0.00 | 92 | 1015.5 |
| 20260508051047 | 6 | 189 | 0.0 | 0.0 | 0.00 | 0.00 | 0.00 | 92 | 1015.5 |
| 20260508050646 | 6 | 189 | 0.0 | 1.6 | 0.00 | 0.00 | 0.00 | 92 | 1015.4 |
| 20260508050043 | 6 | 189 | 0.0 | 1.6 | 0.00 | 0.00 | 0.00 | 92 | 1015.3 |
| 20260508045542 | 6 | 189 | 0.0 | 1.6 | 0.00 | 0.00 | 0.00 | 92 | 1015.4 |
| 20260508045042 | 6 | 189 | 0.0 | 1.6 | 0.00 | 0.00 | 0.00 | 92 | 1015.5 |
| 20260508044554 | 6 | 189 | 0.0 | 0.0 | 0.00 | 0.00 | 0.00 | 92 | 1015.6 |
| 20260508044042 | 6 | 189 | 0.0 | 1.6 | 0.00 | 0.00 | 0.00 | 92 | 1015.6 |
| 20260508043543 | 6 | 189 | 0.0 | 1.6 | 0.00 | 0.00 | 0.00 | 92 | 1015.6 |
| 20260508043043 | 6 | 189 | 0.0 | 1.6 | 0.00 | 0.00 | 0.00 | 92 | 1015.7 |
| 20260508042542 | 6 | 189 | 0.0 | 0.0 | 0.00 | 0.00 | 0.00 | 92 | 1015.7 |
| 20260508042041 | 6 | 189 | 0.0 | 1.6 | 0.00 | 0.00 | 0.00 | 91 | 1015.7 |
| 20260508041551 | 6 | 189 | 0.0 | 1.6 | 0.00 | 0.00 | 0.00 | 92 | 1015.7 |
| 20260508041041 | 7 | 189 | 0.0 | 1.6 | 0.00 | 0.00 | 0.00 | 91 | 1015.7 |
| 20260508040643 | 7 | 189 | 0.0 | 1.6 | 0.00 | 0.00 | 0.00 | 91 | 1015.7 |
| 20260508040048 | 7 | 189 | 0.0 | 1.6 | 0.00 | 0.00 | 0.00 | 91 | 1015.7 |
| 20260508035541 | 7 | 189 | 0.0 | 1.6 | 0.00 | 0.00 | 0.00 | 91 | 1015.8 |